Grand Island, NE

11:52 PM CDT on July 27, 2017 (GMT -0500)
Central Nebraska Regional

Weather History for KGRI - May, 2013

Change the Weather History Date:

Monday, May 20, 2013

  Actual Average Record
Temperature  
Mean Temperature 64 °F 62 °F  
Max Temperature 72 °F 74 °F 100 °F (1925)
Min Temperature 56 °F 51 °F 33 °F (1997)
Degree Days  
Heating Degree Days 1 4  
Month to date heating degree days 162 137  
Since 1 July heating degree days 6088 6139  
Cooling Degree Days 0 2  
Month to date cooling degree days 55 25  
Year to date cooling degree days 61 36  
Growing Degree Days 14 (Base 50)    
Moisture  
Dew Point 53 °F    
Average Humidity 70    
Maximum Humidity 93    
Minimum Humidity 47    
Precipitation  
Precipitation T in 0.15 in 2.46 in (2011)
Month to date precipitation 2.24 2.73  
Year to date precipitation 8.84 8.27  
Snow  
Snow 0.00 in 0.00 in T in (1998)
Month to date snowfall 0.7 0.1  
Since 1 July snowfall 35.2 29.1  
Snow Depth 0.00 in    
Sea Level Pressure  
Sea Level Pressure 29.62 in    
Wind  
Wind Speed 17 mph (West)    
Max Wind Speed 24 mph    
Max Gust Speed 37 mph    
Visibility 10 miles    
Events      
T = Trace of Precipitation, MM = Missing Value Source: NWS Daily Summary

Daily Weather History Graph

Daily Weather History Graph

Search for Another Location

Airport or City:

Trip Planner

Search our weather history database for the weather conditions in past years. The results will help you decide how hot, cold, wet, or windy it might be!

Date:

Astronomy

May. 20, 2013 Rise Set
Actual Time 6:10 AM CDT 8:49 PM CDT
Civil Twilight 5:39 AM CDT 9:21 PM CDT
Nautical Twilight 4:59 AM CDT 10:01 PM CDT
Astronomical Twilight 4:14 AM CDT 10:46 PM CDT
Moon 3:56 PM CDT (5/20) 3:08 AM CDT (5/20)
Length of Visible Light 15h 42m
Length of Day
14h 38m
Waxing Gibbous, 75% of the Moon is Illuminated
May 20
Waxing Gibbous
May 24
Full
May 31
Last Quarter
Jun 8
New
Jun 16
First Quarter

Hourly Weather History & Observations

Time (CDT) Temp. Dew Point Humidity Pressure Visibility Wind Dir Wind Speed Gust Speed Precip Events Conditions
12:53 AM 57.9 °F 55.0 °F 90% 29.52 in 10.0 mi WSW 11.5 mph - N/A   Partly Cloudy
1:53 AM 59.0 °F 57.0 °F 93% 29.54 in 10.0 mi West 13.8 mph - N/A   Mostly Cloudy
2:12 AM 59.0 °F 55.4 °F 88% 29.56 in 10.0 mi NW 24.2 mph 33.4 mph N/A   Scattered Clouds
2:53 AM 57.9 °F 55.0 °F 90% 29.53 in 10.0 mi NNW 21.9 mph 35.7 mph N/A   Overcast
3:31 AM 57.2 °F 55.4 °F 94% 29.59 in 10.0 mi WNW 17.3 mph 24.2 mph N/A   Overcast
3:53 AM 57.0 °F 54.0 °F 89% 29.56 in 10.0 mi NW 17.3 mph - N/A   Mostly Cloudy
4:01 AM 57.2 °F 53.6 °F 88% 29.59 in 10.0 mi NW 15.0 mph - N/A   Scattered Clouds
4:53 AM 57.0 °F 53.1 °F 87% 29.58 in 10.0 mi WNW 11.5 mph - N/A   Overcast
5:53 AM 57.2 °F 53.6 °F 88% 29.64 in 10.0 mi West 10.4 mph - N/A   Overcast
6:53 AM 57.0 °F 53.1 °F 87% 29.65 in 10.0 mi WSW 10.4 mph - N/A   Overcast
7:53 AM 59.0 °F 54.0 °F 83% 29.66 in 10.0 mi WSW 12.7 mph - 0.00 in   Overcast
8:53 AM 60.1 °F 54.0 °F 80% 29.66 in 10.0 mi West 12.7 mph - N/A   Overcast
9:53 AM 64.0 °F 54.0 °F 70% 29.65 in 10.0 mi WSW 16.1 mph - N/A   Partly Cloudy
10:53 AM 66.0 °F 54.0 °F 65% 29.65 in 10.0 mi SW 16.1 mph 24.2 mph N/A   Mostly Cloudy
11:53 AM 69.1 °F 54.0 °F 58% 29.63 in 10.0 mi WSW 21.9 mph 31.1 mph N/A   Scattered Clouds
12:53 PM 69.1 °F 51.1 °F 53% 29.63 in 10.0 mi WSW 23.0 mph 32.2 mph N/A   Mostly Cloudy
1:53 PM 69.1 °F 51.1 °F 53% 29.62 in 10.0 mi WSW 20.7 mph 31.1 mph N/A   Overcast
2:53 PM 70.0 °F 48.0 °F 46% 29.61 in 10.0 mi WSW 24.2 mph - N/A   Mostly Cloudy
3:53 PM 70.0 °F 48.9 °F 47% 29.60 in 10.0 mi West 23.0 mph 28.8 mph N/A   Overcast
4:53 PM 70.0 °F 48.0 °F 46% 29.59 in 10.0 mi WSW 21.9 mph 29.9 mph N/A   Overcast
5:53 PM 68.0 °F 48.9 °F 50% 29.59 in 10.0 mi West 17.3 mph 26.5 mph N/A   Overcast
6:53 PM 66.0 °F 50.0 °F 56% 29.60 in 10.0 mi West 20.7 mph 26.5 mph N/A   Mostly Cloudy
7:53 PM 62.1 °F 52.0 °F 70% 29.60 in 10.0 mi West 21.9 mph 33.4 mph N/A   Partly Cloudy
8:26 PM 60.8 °F 53.6 °F 77% 29.64 in 10.0 mi West 20.7 mph 33.4 mph N/A   Mostly Cloudy
8:53 PM 57.2 °F 55.4 °F 94% 29.65 in 8.0 mi WNW 18.4 mph 27.6 mph N/A   Overcast
9:00 PM 59.0 °F 55.4 °F 88% 29.65 in 10.0 mi WNW 16.1 mph 25.3 mph N/A   Overcast
9:42 PM 59.0 °F 53.6 °F 82% 29.67 in 10.0 mi WNW 16.1 mph - N/A   Overcast
9:53 PM 59.0 °F 54.0 °F 83% 29.65 in 10.0 mi WNW 13.8 mph - N/A   Overcast
10:22 PM 59.0 °F 53.6 °F 82% 29.69 in 10.0 mi WNW 15.0 mph - N/A   Overcast
10:53 PM 59.0 °F 53.1 °F 81% 29.68 in 10.0 mi WNW 13.8 mph - N/A   Overcast
11:34 PM 57.2 °F 51.8 °F 82% 29.71 in 10.0 mi WNW 12.7 mph - N/A   Overcast
11:53 PM 57.9 °F 52.0 °F 81% 29.69 in 10.0 mi WNW 12.7 mph - N/A   Overcast